Meteo Giornale » Osservazioni meteo Italia » Venezia-Tessera

ore: 02:50 - Osservazioni Meteo Venezia-Tessera
Lat. 45° 30' N Lon. 12° 20' E Alt. 2 metri s.l.m.

foschia Europe/Rome

16 °C

Foschia

Temp. 24 Ore

10 °C

20 °C

Nord-Est

7.4 Km/h

Dew point 15 °C

Umidità 93 %

Visibilità  5 Km

Il sole sorge alle ore 07:08

Il sole tramonta alle ore 18:52

Data e Ora Cielo e Fenomeni T °C DP °C Um. % Pres. hPa Vis. km Vento km/h
Oggi h: 02:50 foschia Foschia 16 15 93 1010 5 NE 7.4
Oggi h: 02:20 foschia Foschia 16 15 93 1011 5 N 5.5
Oggi h: 01:50 foschia Foschia 16 15 93 1011 5 NE 7.4
Oggi h: 01:20 nuvoloso Nuvoloso 17 16 93 1011 7 N 7.4
Oggi h: 00:50 nuvoloso Nuvoloso 17 15 88 1011 8 N/NO 9.3
Oggi h: 00:20 nuvoloso Nuvoloso 17 16 93 1011 8 S/SO 7.4
Ieri h: 23:50 nuvoloso Nuvoloso 17 16 93 1012 8 S/SO 7.4
Ieri h: 23:20 poco_nuvoloso Poco Nuvoloso 17 16 93 1012 10 S 7.4
Ieri h: 22:50 poco_nuvoloso Poco Nuvoloso 17 16 93 1012 9 S/SE 7.4
Ieri h: 22:20 nuvoloso Nuvoloso 17 17 100 1012 9 SE 7.4
Ieri h: 21:50 poco_nuvoloso Poco Nuvoloso 16 16 100 1012 10 SE 7.4
Ieri h: 21:20 nuvoloso Nuvoloso 16 16 100 1012 10 E 7.4
Ieri h: 20:50 sereno Sereno 17 16 93 1012 10 E 7.4
Ieri h: 20:20 sereno Sereno 17 16 93 1012 10 SE 7.4
Ieri h: 19:50 sereno Sereno 17 16 93 1012 10 SE 7.4
Ieri h: 19:20 sereno Sereno 17 16 93 1012 10 SE 7.4
Ieri h: 18:50 sereno Sereno 18 16 88 1012 10 SE 7.4
Ieri h: 17:50 sereno Sereno 19 16 82 1012 10 S/SE 9.3
Ieri h: 17:20 sereno Sereno 19 15 77 1012 10 S/SE 9.3
Ieri h: 16:50 poco_nuvoloso Poco Nuvoloso 20 15 72 1012 10 S/SE 9.3
Ieri h: 16:20 poco_nuvoloso Poco Nuvoloso 19 15 77 1013 10 S/SE 9.3
Ieri h: 15:50 poco_nuvoloso Poco Nuvoloso 20 15 72 1013 10 S/SE 11.1
Ieri h: 15:20 poco_nuvoloso Poco Nuvoloso 20 15 72 1013 10 S/SE 11.1
Ieri h: 14:50 poco_nuvoloso Poco Nuvoloso 19 14 72 1014 10 S/SE 11.1
Ieri h: 14:20 poco_nuvoloso Poco Nuvoloso 19 14 72 1014 10 SE 9.3
Ieri h: 13:50 poco_nuvoloso Poco Nuvoloso 19 13 68 1014 10 SE 9.3
Ieri h: 13:20 poco_nuvoloso Poco Nuvoloso 19 12 63 1015 10 N 5.5
Ieri h: 12:50 poco_nuvoloso Poco Nuvoloso 19 12 63 1015 10 E/SE 7.4
Ieri h: 12:20 poco_nuvoloso Poco Nuvoloso 18 12 67 1015 10 E 9.3
Ieri h: 11:50 sereno Sereno 18 13 72 1015 10 E/NE 9.3
Ieri h: 11:20 sereno Sereno 17 12 72 1016 10 E/NE 7.4
Ieri h: 10:50 sereno Sereno 16 13 82 1016 10 E/NE 7.4
Ieri h: 10:20 sereno Sereno 16 12 77 1016 10 N/NE 7.4
Ieri h: 09:50 sereno Sereno 14 12 87 1016 10 NE 9.3
Ieri h: 09:20 sereno Sereno 13 11 87 1016 10 N/NE 11.1
Ieri h: 08:50 sereno Sereno 12 11 93 1016 10 N/NE 11.1
Ieri h: 08:20 sereno Sereno 11 10 93 1016 9 N/NE 9.3
Ieri h: 07:50 sereno Sereno 11 10 93 1016 8 N/NE 9.3
Ieri h: 07:20 sereno Sereno 10 10 100 1016 7 NE 11.1
Ieri h: 06:50 sereno Sereno 11 10 93 1016 7 N/NE 11.1
Ieri h: 06:20 sereno Sereno 11 10 93 1016 8 N/NE 9.3
Ieri h: 05:50 sereno Sereno 11 10 93 1016 8 N/NE 7.4
Ieri h: 05:20 sereno Sereno 11 11 100 1016 8 N/NE 9.3
Ieri h: 04:50 sereno Sereno 11 11 100 1016 8 N/NE 9.3
Ieri h: 04:20 sereno Sereno 11 11 100 1016 10 N/NE 7.4
Ieri h: 03:50 sereno Sereno 11 11 100 1016 10 NE 7.4